Home > Weather > Halden > Past weeks

Flag for Norway Weather for the Past 2 Weeks in Halden, Norway

Now
28 °F

Chilly.


Feels Like: 28 °F
Forecast: 18 / 26 °F
Wind: 1 mph from North

Location: Stromtangen Fyr

Current Time: Feb 13, 2016 at 5:06:45 PM

Latest Report: Feb 13, 2016 at 4:00 PM


Visibility: N/A

Pressure: 29.47 "Hg

Humidity: 76%

Dew point: 21 °F

Location of HaldenLocation

Historic Weather in Halden — Graph

°F

Halden Temperature Yesterday

Maximum temperature yesterday: 33 °F (at 1:00 PM)
Minimum temperature yesterday: 28 °F (at 10:00 PM)
Average temperature yesterday: 30 °F

High & Low Weather Summary for the Past Weeks

 TemperatureHumidityPressure
High42 °F (Jan 29, 4:00 PM)96% (Feb 1, 9:00 AM)29.93 "Hg (Feb 1, 9:00 AM)
Low25 °F (Feb 13, 9:00 AM)48% (Feb 12, 1:00 PM)28.76 "Hg (Feb 2, 7:00 PM)
Average36 °F76%29.28 "Hg
* Reported Jan 29 4:00 PM — Feb 13 4:00 PM, Halden, Weather by CustomWeather, © 2016

Note: Actual official high and low records may vary slightly from our data, if they occured in-between our weather recording intervals... More about our weather records

Advertising

Halden Weather History for the Previous 24 Hours

 ConditionsComfort  
Time TempWeatherWind HumidityBarometerVisibility
4:00 PM
Sat, Feb 13
28 °FChilly.1 mph76%29.47 "HgN/A
3:00 PM28 °FChilly.No wind75%29.44 "HgN/A
1:00 PM29 °FChilly.1 mph78%29.44 "HgN/A
12:00 PM27 °FChilly.2 mph82%29.47 "HgN/A
11:00 AM27 °FChilly.2 mph85%29.47 "HgN/A
10:00 AM27 °FChilly.2 mph89%29.44 "HgN/A
9:00 AM25 °FChilly.3 mph91%29.44 "HgN/A
8:00 AM26 °FChilly.N/A92%29.44 "HgN/A
7:00 AM26 °FChilly.3 mph91%29.44 "HgN/A
6:00 AM26 °FChilly.3 mph91%29.44 "HgN/A
5:00 AM26 °FChilly.5 mph91%29.44 "HgN/A
1:00 AM28 °FChilly.6 mph90%29.47 "HgN/A
11:00 PM
Fri, Feb 12
28 °FChilly.6 mph91%29.47 "HgN/A
10:00 PM28 °FChilly.5 mph93%29.47 "HgN/A
9:00 PM28 °FChilly.6 mph93%29.47 "HgN/A
8:00 PM28 °FChilly.7 mph88%29.50 "HgN/A
7:00 PM29 °FChilly.6 mph80%29.50 "HgN/A
6:00 PM29 °FChilly.5 mph79%29.50 "HgN/A
5:00 PM28 °FChilly.6 mph81%29.50 "HgN/A
Weather by CustomWeather, © 2016

See weather overviewHow to use our weather pages